Regional Weather Roundup
Issued by NWS

Home | Current Version | Previous Version | Text Only | Print | Product List | Glossary Off
Versions: 1 2 3 4 5 6 7 8 9 10 11 12 13 14 15 16 17 18 19 20 21 22 23 24 25 26 27 28 29 30 31 32 33 34 35 36 37 38 39 40 41 42 43 44 45 46 47 48 49 50

000
ASUS43 KOAX 012002
RWRNE

WEATHER ROUNDUP FOR NEBRASKA
NATIONAL WEATHER SERVICE OMAHA NE
200 PM CST SUN FEB 01 2015

NOTES: SATELLITE DATA IS BEING USED TO AUGMENT CLOUD COVER ABOVE
       12000 FEET.
       "FAIR" INDICATES FEW OR NO CLOUDS BELOW 12,000 FEET WITH NO
       SIGNIFICANT WEATHER AND/OR OBSTRUCTIONS TO VISIBILITY.

  * THESE STATIONS DO NOT REPORT WEATHER SUCH AS RAIN...SNOW OR FOG.

NEZ001>004-019>022-054>056-012100-
NEBRASKA PANHANDLE

CITY           SKY/WX    TMP DP  RH WIND       PRES   REMARKS
SCOTTSBLUFF    PTSUNNY   20   9  62 N20       30.25F WCI   4
ALLIANCE       PTSUNNY    9   2  73 N17       30.24F WCI  -9
CHADRON        MOSUNNY   11   4  73 VRB3      30.32F
SIDNEY         CLOUDY    14   7  73 N21       30.22F WCI  -4
$$

NEZ057>060-069>072-079>082-012100-
SOUTHWEST NEBRASKA

CITY           SKY/WX    TMP DP  RH WIND       PRES   REMARKS
NORTH PLATTE   PTSUNNY    9   0  67 N25G36    30.27S WCI -12
IMPERIAL       MOSUNNY   14   3  61 N31       30.26S WCI  -7
MCCOOK         CLOUDY    15   5  64 NW30G38   30.25F WCI  -5
$$

NEZ005>010-023>029-035>040-094-012100-
NORTH CENTRAL NEBRASKA

CITY           SKY/WX    TMP DP  RH WIND       PRES   REMARKS
VALENTINE      MIX PCPN   4  -4  69 N17G28    30.33F WCI -16
BROKEN BOW     LGT SNOW   8   0  69 N31G39    30.23S VSB 3/4 WCI -15
ORD            LGT SNOW   6  -2  69 NW24G37   30.24S VSB 1   WCI -16
$$

NEZ041-046>049-061>064-073>077-083>087-012100-
SOUTH CENTRAL NEBRASKA

CITY           SKY/WX    TMP DP  RH WIND       PRES   REMARKS
GRAND ISLAND   BLWGSNOW   7   2  80 NW30G38   30.21S VSB 1/2 WCI -16
HASTINGS       HVY SNOW   9   4  80 N33       30.18S VSB 1/4 WCI -15
KEARNEY *      CLOUDY    10   3  72 N29G38    30.21S WCI -11
$$

NEZ011>018-030>034-042>045-012100-
NORTHEAST NEBRASKA

CITY           SKY/WX    TMP DP  RH WIND       PRES   REMARKS
NORFOLK        LGT SNOW   5   0  79 NW26G37   30.21S VSB 1   WCI -18
TEKAMAH        SNOW      14   9  80 N32       30.15R VSB 1/2 WCI  -7
$$

NEZ050>053-065>068-078-088>093-012100-
SOUTHEAST NEBRASKA

CITY           SKY/WX    TMP DP  RH WIND       PRES   REMARKS
LINCOLN        LGT SNOW  11   5  77 N32G40    30.15R WCI -12
OMAHA EPPLEY   SNOW      16  12  84 N28G38    30.09R VSB 1/2 WCI  -4
FALLS CITY     LGT SNOW  20  15  81 NW20G33   30.00R VSB 3/4 WCI   4
$$

NEZ044-045-051>053-067-012100-
OMAHA AREA

CITY           SKY/WX    TMP DP  RH WIND       PRES   REMARKS
OMAHA EPPLEY   SNOW      16  12  84 N28G38    30.09R VSB 1/2 WCI  -4
OFFUTT AFB     LGT SNOW  18  12  79 NW16G33   30.07R WCI   3
$$


USA.gov is the U.S. government's official web portal to all federal, state and local government web resources and services.